User: anonymous   Login
Location: ROBOsky.com Wild Flower Ridge Observatory
(43.9736°N, 79.9739°W)
Time: 02:14:26
(UTC-04:00)
Language:

Cosmos 1190 Rocket - Orbit

View from above orbital plane
View from above orbital plane
View from above satellite
View from above satellite

Ground track
Ground track

The orbit data is extracted from the following two-line orbital elements,

1 11870U 80056B   14302.79401714  .00000216  00000-0  82312-4 0  8492
2 11870 074.0523 172.9557 0016496 001.1096 067.2840 14.36556907796745
Epoch (UTC): 29 October 2014 19:03:23
Eccentricity: 0.0016496
inclination: 74.0523°
perigee height: 758 km
apogee height: 781 km
right ascension of ascending node: 172.9557°
argument of perigee: 1.1096°
revolutions per day: 14.36556907
mean anomaly at epoch: 67.2840°
orbit number at epoch: 79674

The dashed part of the orbit path shows where the satellite is in the earth's shadow,  

DLR